DW4657 Weather Reports


Display with metric or nautical units.
time (UTC)temp
F
wind
direction
speed
MPH
gust
MPH
rain 1hr
in
rain 24hr
in
rain mn
in
humidity
%
barometer
mb
20260503020518 50 0 0.0 0.0 0.00 0.00 0.00 86 1010.1
20260503020032 49 0 0.0 1.0 0.00 0.00 0.00 86 1010.2
20260503015519 49 0 0.0 2.0 0.00 0.00 0.00 86 1010.4
20260503015020 49 219 0.0 2.0 0.00 0.00 0.00 85 1010.4
20260503014552 50 0 0.0 1.0 0.00 0.00 0.00 85 1010.4
20260503014018 50 212 0.0 2.0 0.00 0.00 0.00 85 1010.4
20260503013519 50 0 1.0 2.0 0.00 0.00 0.00 84 1010.4
20260503013038 50 81 0.0 2.0 0.00 0.00 0.00 84 1010.3
20260503012518 50 79 0.0 2.0 0.00 0.00 0.00 84 1010.4
20260503012019 50 0 0.0 3.0 0.00 0.00 0.00 83 1010.4
20260503011547 50 144 0.0 3.0 0.00 0.00 0.00 83 1010.4
20260503011018 50 110 0.0 1.0 0.00 0.00 0.00 83 1010.4
20260503010518 50 0 0.0 2.0 0.00 0.00 0.00 83 1010.4
20260503010037 50 120 0.0 3.0 0.00 0.00 0.00 83 1010.5
20260503005519 50 0 0.0 3.0 0.00 0.00 0.00 83 1010.3
20260503005018 50 209 1.0 3.0 0.00 0.00 0.00 83 1010.4
20260503004558 50 136 0.0 1.0 0.00 0.00 0.00 82 1010.3
20260503004020 50 176 0.0 3.0 0.00 0.00 0.00 82 1010.2
20260503003519 50 0 0.0 3.0 0.00 0.00 0.00 82 1010.2
20260503003032 50 0 0.0 2.0 0.00 0.00 0.00 82 1010.1
20260503002519 50 0 0.0 2.0 0.00 0.00 0.00 82 1010.2
20260503002019 50 141 1.0 2.0 0.00 0.00 0.00 82 1010.1
20260503001538 50 141 0.0 2.0 0.00 0.00 0.00 82 1010.1
20260503001019 51 88 0.0 1.0 0.00 0.00 0.00 82 1010.2
20260503000519 51 0 0.0 1.0 0.00 0.00 0.00 82 1010.2
20260503000040 50 188 0.0 1.0 0.00 0.00 0.00 82 1010.2
20260502235518 50 0 0.0 2.0 0.00 0.00 0.00 82 1010.1
20260502235018 50 0 0.0 4.0 0.00 0.00 0.00 82 1010.3
20260502234537 51 281 1.0 4.0 0.00 0.00 0.00 81 1010.2
20260502234022 51 269 1.0 4.0 0.00 0.00 0.00 81 1010.2
20260502233520 51 235 2.0 4.0 0.00 0.00 0.00 81 1010.2
20260502233037 51 0 1.0 3.0 0.00 0.00 0.00 81 1010.2
20260502232519 51 188 1.0 3.0 0.00 0.00 0.00 81 1010.1
20260502232019 51 223 0.0 3.0 0.00 0.00 0.00 81 1010.1
20260502231535 51 215 1.0 3.0 0.00 0.00 0.00 81 1010.2
20260502231019 51 198 1.0 5.0 0.00 0.00 0.00 81 1010.2
20260502230519 51 161 1.0 5.0 0.00 0.00 0.00 81 1010.3
20260502230035 51 217 1.0 9.0 0.00 0.00 0.00 81 1010.3
20260502225518 51 264 2.0 9.0 0.00 0.00 0.00 81 1010.4
20260502225018 51 235 2.0 7.0 0.00 0.00 0.00 81 1010.2
20260502224535 51 214 0.0 5.0 0.00 0.00 0.00 81 1010.2
20260502224020 51 211 2.0 5.0 0.00 0.00 0.00 80 1010.2
20260502223520 51 234 1.0 4.0 0.00 0.00 0.00 80 1010.1
20260502223038 51 226 1.0 4.0 0.00 0.00 0.00 80 1010.0
20260502222519 51 227 1.0 5.0 0.00 0.00 0.00 80 1010.0
20260502222019 51 217 2.0 5.0 0.00 0.00 0.00 79 1009.9
20260502221537 52 227 1.0 5.0 0.00 0.00 0.00 79 1010.0
20260502221019 52 217 1.0 5.0 0.00 0.00 0.00 79 1010.0
20260502220518 52 243 2.0 5.0 0.00 0.00 0.00 78 1010.0
20260502220041 52 224 2.0 5.0 0.00 0.00 0.00 78 1010.0
20260502215520 52 238 2.0 5.0 0.00 0.00 0.00 77 1009.9
20260502215019 52 162 2.0 6.0 0.00 0.00 0.00 78 1009.9
20260502214535 52 201 2.0 6.0 0.00 0.00 0.00 78 1010.0
20260502214018 52 192 3.0 6.0 0.00 0.00 0.00 77 1010.0
20260502213519 52 255 2.0 6.0 0.00 0.00 0.00 78 1010.1
20260502213044 52 179 1.0 9.0 0.00 0.00 0.00 77 1009.9
20260502212519 52 207 3.0 9.0 0.00 0.00 0.00 77 1010.0
20260502212018 53 221 1.0 5.0 0.00 0.00 0.00 77 1009.9
20260502211537 53 0 1.0 7.0 0.00 0.00 0.00 77 1009.9
20260502211018 53 113 2.0 7.0 0.00 0.00 0.00 76 1009.9
20260502210521 53 139 3.0 7.0 0.00 0.00 0.00 76 1009.9
20260502210037 53 80 1.0 7.0 0.00 0.00 0.00 77 1010.0
20260502205519 53 148 2.0 7.0 0.00 0.00 0.00 76 1010.0
20260502205018 53 205 2.0 9.0 0.00 0.00 0.00 76 1010.0
20260502204537 53 206 4.0 9.0 0.00 0.00 0.00 77 1010.1
20260502204018 53 160 1.0 4.0 0.00 0.00 0.00 78 1010.1
20260502203518 53 142 1.0 8.0 0.00 0.00 0.00 78 1010.0
20260502203055 53 193 1.0 8.0 0.00 0.00 0.00 79 1010.0
20260502202518 53 202 3.0 7.0 0.00 0.00 0.00 79 1010.0
20260502202018 52 156 1.0 7.0 0.00 0.00 0.00 79 1010.2
20260502201536 52 191 3.0 7.0 0.00 0.00 0.00 78 1010.3
20260502201018 52 188 2.0 5.0 0.00 0.00 0.00 78 1010.4
20260502200518 52 190 1.0 6.0 0.00 0.00 0.00 78 1010.4
20260502200036 52 175 3.0 10.0 0.00 0.00 0.00 77 1010.4
20260502195518 52 219 2.0 10.0 0.00 0.00 0.00 77 1010.6
20260502195019 52 245 2.0 6.0 0.00 0.00 0.00 76 1010.7
20260502194538 53 0 1.0 8.0 0.00 0.00 0.00 76 1010.7
20260502194018 52 196 3.0 11.0 0.00 0.00 0.00 75 1010.7
20260502193519 52 61 3.0 11.0 0.00 0.00 0.00 74 1010.8
20260502193038 52 157 5.0 11.0 0.00 0.00 0.00 73 1010.8
20260502192519 52 179 3.0 11.0 0.00 0.00 0.00 72 1011.0
20260502192018 53 157 5.0 12.0 0.00 0.00 0.00 71 1011.1
20260502191537 53 217 6.0 12.0 0.00 0.00 0.00 70 1011.0
20260502191019 54 126 4.0 12.0 0.00 0.00 0.00 69 1011.0
20260502190518 54 238 5.0 12.0 0.00 0.00 0.00 66 1011.0
20260502190038 54 128 2.0 10.0 0.00 0.00 0.00 65 1011.0
20260502185518 54 134 3.0 11.0 0.00 0.00 0.00 65 1011.0
20260502185018 55 226 4.0 11.0 0.00 0.00 0.00 63 1010.9
20260502184536 55 213 6.0 11.0 0.00 0.00 0.00 61 1011.0
20260502184018 55 137 4.0 10.0 0.00 0.00 0.00 61 1011.0
20260502183518 55 152 4.0 10.0 0.00 0.00 0.00 62 1010.9
20260502183039 55 212 4.0 10.0 0.00 0.00 0.00 63 1011.0
20260502182522 55 102 4.0 10.0 0.00 0.00 0.00 64 1010.9
20260502182017 55 240 1.0 8.0 0.00 0.00 0.00 64 1011.1
20260502181556 55 158 4.0 8.0 0.00 0.00 0.00 64 1011.1
20260502181018 55 218 3.0 8.0 0.00 0.00 0.00 63 1011.4
20260502180520 55 290 4.0 10.0 0.00 0.00 0.00 62 1011.4
20260502164018 59 231 7.0 13.0 0.00 0.00 0.00 49 1010.9
20260502163519 59 179 3.0 11.0 0.00 0.00 0.00 48 1010.9
20260502163038 59 215 3.0 11.0 0.00 0.00 0.00 53 1010.9
20260502162520 58 203 4.0 11.0 0.00 0.00 0.00 52 1011.1
20260502162018 58 225 3.0 11.0 0.00 0.00 0.00 56 1011.0
20260502161540 58 194 3.0 15.0 0.00 0.00 0.00 57 1011.1
20260502161018 58 51 5.0 15.0 0.00 0.00 0.00 56 1011.1
20260502160520 58 184 4.0 10.0 0.00 0.00 0.00 59 1010.9
20260502152018 57 219 2.0 6.0 0.00 0.00 0.00 70 1011.6
20260502151540 57 82 2.0 7.0 0.00 0.00 0.00 70 1011.6
20260502151018 56 233 3.0 7.0 0.00 0.00 0.00 70 1011.9
20260502150518 56 219 3.0 7.0 0.00 0.00 0.00 69 1012.0
20260502130519 52 245 3.0 8.0 0.00 0.00 0.00 78 1012.4
20260502123517 52 225 1.0 9.0 0.00 0.00 0.00 78 1012.3
20260502123038 52 166 2.0 9.0 0.00 0.00 0.00 78 1012.4
20260502122518 51 233 3.0 10.0 0.00 0.00 0.00 78 1012.2
20260502122023 51 217 3.0 10.0 0.00 0.00 0.00 78 1012.1
20260502121539 51 172 4.0 9.0 0.00 0.00 0.00 78 1012.0
20260502121020 50 214 3.0 9.0 0.00 0.00 0.00 78 1012.1
20260502120517 50 250 3.0 11.0 0.00 0.00 0.00 78 1011.9
20260502115517 50 192 2.0 6.0 0.00 0.00 0.00 79 1011.9
20260502115019 49 142 2.0 7.0 0.00 0.00 0.00 79 1011.9
20260502114539 49 161 3.0 7.0 0.00 0.00 0.00 79 1011.8
20260502114018 49 169 2.0 6.0 0.00 0.00 0.00 79 1011.8
20260502113519 49 212 2.0 6.0 0.00 0.00 0.00 79 1011.7
20260502113036 49 222 1.0 6.0 0.00 0.00 0.00 79 1011.7
20260502112518 49 164 2.0 6.0 0.00 0.00 0.00 79 1011.9
20260502112018 48 263 3.0 6.0 0.00 0.00 0.00 79 1011.9
20260502111532 48 158 1.0 5.0 0.00 0.00 0.00 78 1011.8
20260502111019 48 192 1.0 5.0 0.00 0.00 0.00 79 1011.9
20260502110518 48 226 0.0 4.0 0.00 0.00 0.00 79 1011.7
20260502110042 48 195 1.0 4.0 0.00 0.00 0.00 79 1011.7
20260502105522 48 209 1.0 5.0 0.00 0.00 0.00 79 1011.5
20260502105021 48 155 1.0 5.0 0.00 0.00 0.00 79 1011.5
20260502104539 48 269 2.0 7.0 0.00 0.00 0.00 79 1011.5
20260502104018 48 143 2.0 7.0 0.00 0.00 0.00 79 1011.6
20260502103518 48 241 2.0 7.0 0.00 0.00 0.00 79 1011.5
20260502103038 47 172 1.0 7.0 0.00 0.00 0.00 80 1011.5
20260502102519 47 226 1.0 8.0 0.00 0.00 0.00 81 1011.6
20260502102019 47 143 3.0 8.0 0.00 0.00 0.00 81 1011.6
20260502101543 46 218 2.0 4.0 0.00 0.00 0.00 82 1011.6
20260502101018 46 203 0.0 3.0 0.00 0.00 0.00 82 1011.4
20260502100519 46 146 0.0 3.0 0.00 0.00 0.00 83 1011.4
20260502091018 45 0 0.0 3.0 0.00 0.00 0.00 82 1011.2
20260502090520 45 219 0.0 3.0 0.00 0.00 0.00 82 1011.3
20260502071535 46 0 0.0 1.0 0.00 0.00 0.00 79 1011.3
20260502071018 46 0 0.0 1.0 0.00 0.00 0.00 79 1011.4
20260502070518 46 0 0.0 1.0 0.00 0.00 0.00 79 1011.4
20260502070037 46 0 0.0 1.0 0.00 0.00 0.00 79 1011.4
20260502065518 46 0 0.0 3.0 0.00 0.00 0.00 79 1011.3
20260502065017 45 191 1.0 3.0 0.00 0.00 0.00 80 1011.4
20260502064550 45 0 0.0 2.0 0.00 0.00 0.00 80 1011.4
20260502064021 44 205 0.0 2.0 0.00 0.00 0.00 81 1011.5
20260502063518 44 211 0.0 2.0 0.00 0.00 0.00 81 1011.4
20260502063039 44 0 0.0 1.0 0.00 0.00 0.00 82 1011.5
20260502062521 43 0 0.0 1.0 0.00 0.00 0.00 82 1011.5
20260502062022 43 0 0.0 1.0 0.00 0.00 0.00 82 1011.6
20260502061538 42 0 0.0 1.0 0.00 0.00 0.00 82 1011.5
20260502061017 42 216 0.0 1.0 0.00 0.00 0.00 82 1011.5
20260502060517 42 0 0.0 0.0 0.00 0.00 0.00 81 1011.6
20260502060040 42 0 0.0 0.0 0.00 0.00 0.00 80 1011.6
20260502055517 42 0 0.0 0.0 0.00 0.00 0.00 80 1011.6
20260502055020 43 0 0.0 0.0 0.00 0.00 0.00 80 1011.6
20260502054542 43 0 0.0 0.0 0.00 0.00 0.00 79 1011.7
20260502054020 43 0 0.0 0.0 0.00 0.00 0.00 78 1011.7
20260502053518 44 0 0.0 0.0 0.00 0.00 0.00 78 1011.8
20260502053038 44 0 0.0 0.0 0.00 0.00 0.00 77 1011.6
20260502052521 44 0 0.0 0.0 0.00 0.00 0.00 77 1011.6
20260502052018 44 0 0.0 0.0 0.00 0.00 0.00 77 1011.7
20260502051538 44 0 0.0 0.0 0.00 0.00 0.00 76 1011.8
20260502051017 45 0 0.0 1.0 0.00 0.00 0.00 76 1011.7
20260502050520 45 0 0.0 1.0 0.00 0.00 0.00 76 1011.7
20260502050039 45 0 0.0 1.0 0.00 0.00 0.00 76 1011.7
20260502045519 44 0 0.0 1.0 0.00 0.00 0.00 76 1011.7
20260502045019 44 0 0.0 1.0 0.00 0.00 0.00 77 1011.8
20260502044540 44 0 0.0 1.0 0.00 0.00 0.00 78 1011.8
20260502044020 44 0 0.0 0.0 0.00 0.00 0.00 78 1011.8
20260502043521 44 0 0.0 0.0 0.00 0.00 0.00 78 1011.8
20260502043038 44 0 0.0 0.0 0.00 0.00 0.00 78 1011.8
20260502042519 44 0 0.0 0.0 0.00 0.00 0.00 77 1011.9
20260502042019 44 0 0.0 0.0 0.00 0.00 0.00 77 1011.9
20260502041536 44 0 0.0 0.0 0.00 0.00 0.00 76 1011.8
20260502041019 44 0 0.0 0.0 0.00 0.00 0.00 76 1011.9
20260502040520 44 0 0.0 0.0 0.00 0.00 0.00 75 1011.9
20260502040045 44 0 0.0 0.0 0.00 0.00 0.00 75 1011.8
20260502035520 45 0 0.0 0.0 0.00 0.00 0.00 75 1011.8
20260502035020 45 0 0.0 0.0 0.00 0.00 0.00 74 1011.7
20260502034535 45 0 0.0 0.0 0.00 0.00 0.00 74 1011.8
20260502034019 46 0 0.0 0.0 0.00 0.00 0.00 74 1011.7
20260502033520 46 0 0.0 1.0 0.00 0.00 0.00 73 1011.7
20260502033037 46 0 0.0 1.0 0.00 0.00 0.00 73 1011.8
20260502032520 46 0 0.0 1.0 0.00 0.00 0.00 72 1011.8
20260502032019 46 0 0.0 1.0 0.00 0.00 0.00 71 1011.7
20260502031545 46 0 0.0 0.0 0.00 0.00 0.00 71 1011.6
20260502031019 47 0 0.0 1.0 0.00 0.00 0.00 70 1011.6
20260502030520 47 0 0.0 1.0 0.00 0.00 0.00 69 1011.6
20260502030038 47 0 0.0 1.0 0.00 0.00 0.00 69 1011.6
20260502025520 48 0 0.0 1.0 0.00 0.00 0.00 69 1011.5
20260502025019 48 0 0.0 1.0 0.00 0.00 0.00 67 1011.4
20260502024538 48 0 0.0 1.0 0.00 0.00 0.00 67 1011.4
20260502024019 48 208 0.0 1.0 0.00 0.00 0.00 67 1011.4
20260502023519 48 0 0.0 1.0 0.00 0.00 0.00 66 1011.3
20260502023039 48 0 0.0 1.0 0.00 0.00 0.00 66 1011.4
20260502022520 48 0 0.0 0.0 0.00 0.00 0.00 65 1011.3
20260502022022 48 115 0.0 1.0 0.00 0.00 0.00 65 1011.3
20260502021539 48 0 0.0 1.0 0.00 0.00 0.00 64 1011.1
20260502021019 48 0 0.0 1.0 0.00 0.00 0.00 64 1011.2